Date String (YYYY-MM-DD hh:mm:ss) UTC,Instrument flags,Ambient pressure (hPa),Sample flow (lpm),Bypass flow (lpm),Sample temperature (°C),Ambient temperature (°C),ASC tube jacket temperature (°C),LED temperature (°C),Box temperature (°C),Sample RH (%),Span deviation,Mass concentration (μg/m³),Mass concentration (μg/m³),Mass concentration (μg/m³)
DateTimeUTC,F1_M11,P_M11,Q1_M11,Q2_M11,T1_M11,T2_M11,T3_M11,T4_M11,T5_M11,U1_M11,ZSPAN_M11,X0_M11,X2_M11,X1_M11
2022-08-01 21:00:00,,0827.7,5.00,0.00,29.2,27.8,00.0,37.9,31.1,27.3,0000.0,0013.49,0007.20,0006.44
2022-08-01 21:01:00,,0827.7,5.00,0.00,29.2,28.0,00.0,37.9,31.1,26.0,0000.0,0014.10,0007.18,0006.42
2022-08-01 21:02:00,,0827.7,5.00,0.00,29.2,27.9,00.0,37.9,31.2,26.0,0000.0,0014.27,0007.18,0006.42
2022-08-01 21:03:00,,0827.7,4.99,0.00,29.2,27.3,00.0,37.9,31.0,25.5,0000.0,0014.14,0007.12,0006.39
2022-08-01 21:04:00,,0827.7,5.00,0.00,29.1,26.9,00.0,37.8,31.0,25.6,0000.0,0013.65,0007.06,0006.36
2022-08-01 21:05:00,,0827.7,5.01,0.00,29.1,27.0,00.0,37.8,30.9,24.9,0000.0,0013.48,0007.04,0006.35
2022-08-01 21:06:00,,0827.7,5.01,0.00,29.1,27.1,00.0,37.8,30.8,24.6,0000.0,0013.66,0006.97,0006.33
2022-08-01 21:07:00,,0827.7,4.99,0.00,29.1,27.3,00.0,37.8,30.9,24.9,0000.0,0013.59,0006.95,0006.32
2022-08-01 21:08:00,,0827.7,5.00,0.00,29.1,27.6,00.0,37.8,31.0,25.2,0000.0,0013.26,0006.90,0006.31
2022-08-01 21:09:00,,0827.7,5.00,0.00,29.1,27.8,00.0,37.9,31.1,25.3,0000.0,0013.04,0006.88,0006.30
2022-08-01 21:10:00,,0827.7,4.99,0.00,29.2,28.0,00.0,37.9,31.2,24.6,0000.0,0012.89,0006.85,0006.28
2022-08-01 21:11:00,,0827.7,5.00,0.00,29.2,28.1,00.0,37.9,31.2,24.6,0000.0,0011.32,0006.81,0006.26
2022-08-01 21:12:00,,0827.7,5.00,0.00,29.3,27.8,00.0,37.9,31.2,25.1,0000.0,0010.88,0006.79,0006.25
2022-08-01 21:13:00,,0827.7,5.01,0.00,29.2,27.2,00.0,37.9,31.0,25.1,0000.0,0010.60,0006.75,0006.23
2022-08-01 21:14:00,,0827.7,4.99,0.00,29.2,27.0,00.0,37.9,31.0,24.8,0000.0,0010.67,0006.75,0006.23
2022-08-01 21:15:00,,0827.7,4.99,0.00,29.1,27.1,00.0,37.8,30.9,24.7,0000.0,0010.79,0006.75,0006.23
2022-08-01 21:16:00,,0827.7,5.01,0.00,29.1,27.3,00.0,37.8,30.9,25.2,0000.0,0010.84,0006.73,0006.21
2022-08-01 21:17:00,,0827.7,5.00,0.00,29.1,27.5,00.0,37.8,31.0,24.4,0000.6,0010.64,0006.75,0006.20
2022-08-01 21:18:00,,0827.7,5.01,0.00,29.2,27.7,00.0,37.9,31.0,24.7,0000.0,0010.57,0006.70,0006.17
2022-08-01 21:19:00,,0827.7,5.00,0.00,29.2,27.9,00.0,37.9,31.1,24.4,0000.0,0010.46,0006.67,0006.16
2022-08-01 21:20:00,,0827.7,5.00,0.00,29.3,28.1,00.0,37.9,31.2,24.6,0000.0,0010.32,0006.61,0006.14
2022-08-01 21:21:00,,0827.7,5.00,0.00,29.3,27.7,00.0,37.9,31.1,24.5,0000.0,0010.56,0006.57,0006.12
2022-08-01 21:22:00,,0827.7,5.00,0.00,29.2,27.2,00.0,37.9,31.0,24.1,0001.6,0010.58,0006.58,0006.12
2022-08-01 21:23:00,,0827.7,5.00,0.00,29.2,27.0,00.0,37.9,31.0,22.4,0001.9,0010.33,0006.57,0006.12
2022-08-01 21:24:00,,0827.7,5.01,0.00,29.1,27.1,00.0,37.9,30.9,22.7,0002.7,0010.33,0006.57,0006.13
2022-08-01 21:25:00,,0827.7,5.00,0.00,29.1,27.2,00.0,37.8,30.9,22.9,0002.8,0010.20,0006.55,0006.13
2022-08-01 21:26:00,,0827.7,5.00,0.00,29.1,27.4,00.0,37.8,30.9,22.4,0002.3,0010.26,0006.53,0006.12
2022-08-01 21:27:00,,0827.7,5.00,0.00,29.1,27.6,00.0,37.9,31.0,22.7,0000.4,0010.62,0006.55,0006.14
2022-08-01 21:28:00,,0827.7,5.01,0.00,29.2,27.8,00.0,37.9,31.1,23.3,0001.3,0010.49,0006.51,0006.14
2022-08-01 21:29:00,,0827.7,5.01,0.00,29.2,28.0,00.0,37.9,31.2,22.9,0000.5,0010.48,0006.53,0006.15
2022-08-01 21:30:00,,0827.7,4.99,0.00,29.3,28.2,00.0,37.9,31.3,23.1,0001.8,0010.54,0006.54,0006.15
2022-08-01 21:31:00,,0827.7,5.00,0.00,29.3,27.9,00.0,37.9,31.2,22.5,0002.9,0010.61,0006.56,0006.15
2022-08-01 21:32:00,,0827.7,5.00,0.00,29.3,27.3,00.0,37.9,31.1,22.9,0002.9,0010.79,0006.55,0006.14
2022-08-01 21:33:00,,0827.8,5.01,0.00,29.2,27.0,00.0,37.9,31.0,23.0,0002.4,0010.49,0006.52,0006.13
2022-08-01 21:34:00,,0827.8,4.99,0.00,29.2,27.1,00.0,37.9,31.0,22.5,0002.2,0010.43,0006.48,0006.11
2022-08-01 21:35:00,,0827.9,5.01,0.00,29.1,27.2,00.0,37.9,30.9,22.7,0002.1,0010.52,0006.49,0006.11
2022-08-01 21:36:00,,0827.9,5.00,0.00,29.1,27.4,00.0,37.9,30.9,23.7,0001.7,0010.91,0006.46,0006.10
2022-08-01 21:37:00,,0827.9,4.99,0.00,29.2,27.6,00.0,37.9,31.0,23.7,0001.4,0011.15,0006.45,0006.08
2022-08-01 21:38:00,,0827.9,4.99,0.00,29.2,27.8,00.0,37.9,31.1,23.8,0000.6,0010.63,0006.44,0006.06
2022-08-01 21:39:00,,0827.9,5.00,0.00,29.2,28.0,00.0,37.9,31.2,24.2,0000.4,0010.67,0006.43,0006.05
2022-08-01 21:40:00,,0827.9,5.00,0.00,29.3,28.1,00.0,37.9,31.3,25.2,0000.1,0010.65,0006.42,0006.03
2022-08-01 21:41:00,,0827.9,5.00,0.00,29.3,27.6,00.0,37.9,31.1,25.6,-000.7,0011.22,0006.42,0006.01
2022-08-01 21:42:00,,0827.9,5.00,0.00,29.2,27.0,00.0,37.9,31.0,26.2,-000.7,0011.24,0006.43,0006.01
2022-08-01 21:43:00,,0827.9,5.01,0.00,29.2,27.0,00.0,37.9,31.0,25.8,-000.6,0010.94,0006.44,0006.01
2022-08-01 21:44:00,,0827.9,4.99,0.00,29.1,27.1,00.0,37.9,30.9,26.0,-000.4,0010.69,0006.46,0006.02
2022-08-01 21:45:00,,0827.9,4.99,0.00,29.1,27.3,00.0,37.9,30.9,25.8,-000.1,0010.67,0006.43,0006.01
2022-08-01 21:46:00,,0827.9,5.00,0.00,29.1,27.5,00.0,37.9,31.0,26.1,-000.3,0011.28,0006.40,0006.00
2022-08-01 21:47:00,,0827.9,5.00,0.00,29.2,27.7,00.0,37.9,31.0,26.0,-000.3,0011.31,0006.40,0005.99
2022-08-01 21:48:00,,0828.0,5.01,0.00,29.2,27.9,00.0,37.9,31.1,26.1,-000.2,0011.34,0006.42,0006.00
2022-08-01 21:49:00,,0828.0,5.00,0.00,29.3,28.1,00.0,37.9,31.2,25.7,-000.1,0011.32,0006.43,0005.99
2022-08-01 21:50:00,,0828.0,4.99,0.00,29.3,27.9,00.0,37.9,31.2,25.3,-000.1,0011.22,0006.41,0005.99
2022-08-01 21:51:00,,0828.0,5.01,0.00,29.2,27.2,00.0,37.9,31.0,25.4,0000.0,0011.25,0006.43,0006.00
2022-08-01 21:52:00,,0828.0,4.99,0.00,29.2,27.0,00.0,37.9,31.0,25.8,0000.0,0010.79,0006.43,0006.01
2022-08-01 21:53:00,,0828.0,5.00,0.00,29.1,27.0,00.0,37.9,30.9,25.9,0000.6,0010.81,0006.45,0006.03
2022-08-01 21:54:00,,0828.0,4.99,0.00,29.1,27.2,00.0,37.9,30.9,25.8,0001.1,0010.90,0006.49,0006.06
2022-08-01 21:55:00,,0828.0,5.01,0.00,29.1,27.3,00.0,37.9,30.9,25.7,0000.0,0010.96,0006.51,0006.07
2022-08-01 21:56:00,,0827.9,5.00,0.00,29.1,27.6,00.0,37.9,31.0,25.6,0000.0,0011.25,0006.54,0006.09
2022-08-01 21:57:00,,0828.0,5.00,0.00,29.2,27.8,00.0,37.9,31.1,25.3,0000.0,0011.32,0006.59,0006.10
2022-08-01 21:58:00,,0828.0,5.00,0.00,29.2,27.9,00.0,37.9,31.2,25.3,0000.0,0011.36,0006.62,0006.12
2022-08-01 21:59:00,,0827.9,4.99,0.00,29.2,28.1,00.0,37.9,31.3,23.7,0000.0,0011.19,0006.64,0006.13
